Weather History for Fort Sill, OK

Change the Weather History Date:

Sunday, May 12, 2013

  Actual Average Record
Temperature  
Mean Temperature 65 °F -  
Max Temperature 79 °F 81 °F 95 °F (1998)
Min Temperature 51 °F 57 °F 40 °F (1960)
Growing Degree Days 15 (Base 50)    
Moisture  
Dew Point 41 °F    
Average Humidity 44    
Maximum Humidity 72    
Minimum Humidity 23    
Precipitation  
Precipitation 0.00 in - - ()
Sea Level Pressure  
Sea Level Pressure 30.18 in    
Wind  
Wind Speed 9 mph (SE)    
Max Wind Speed 15 mph    
Max Gust Speed 20 mph    
Visibility 10 miles    
Events      
Averages and records for this station are not official NWS values.
T = Trace of Precipitation, MM = Missing Value Source: NWS Daily Summary

Daily Weather History Graph

Daily Weather History Graph

Search for Another Location

Airport:

Trip Planner

Search our weather history database for the weather conditions in past years. The results will help you decide how hot, cold, wet, or windy it might be!

Date:

Astronomy

May. 12, 2013 Rise Set
Actual Time 6:32 AM CDT 8:27 PM CDT
Civil Twilight 6:05 AM CDT 8:55 PM CDT
Nautical Twilight 5:31 AM CDT 9:28 PM CDT
Astronomical Twilight 4:55 AM CDT 10:04 PM CDT
Moon 8:30 AM CDT (5/12) 10:54 PM CDT (5/12)
Length of Visible Light 14h 50m
Length of Day
13h 54m
Waxing Crescent, 7% of the Moon is Illuminated
May 12
Waxing Crescent
May 17
First Quarter
May 24
Full
May 31
Last Quarter
Jun 8
New

Hourly Weather History & Observations

Time (CDT) Temp. Dew Point Humidity Pressure Visibility Wind Dir Wind Speed Gust Speed Precip Events Conditions
12:58 AM 55.8 °F 45.9 °F 69% 30.24 in 10.0 mi NNE 8.1 mph - N/A   Clear
1:58 AM 54.1 °F 44.8 °F 71% 30.25 in 10.0 mi NNE 11.5 mph - N/A   Clear
2:58 AM 53.6 °F 43.0 °F 67% 30.24 in 10.0 mi NNE 8.1 mph - N/A   Clear
3:58 AM 51.6 °F 42.8 °F 72% 30.23 in 10.0 mi NNE 12.7 mph - N/A   Clear
4:58 AM 51.4 °F 41.2 °F 68% 30.23 in 10.0 mi NE 6.9 mph - N/A   Clear
5:58 AM 52.2 °F 39.4 °F 62% 30.22 in 10.0 mi NE 6.9 mph - N/A   Clear
6:58 AM 52.5 °F 39.4 °F 61% 30.23 in 10.0 mi East 3.5 mph - N/A   Clear
7:58 AM 54.1 °F 41.5 °F 62% 30.25 in 10.0 mi ENE 1.2 mph - N/A   Clear
8:58 AM 57.7 °F 40.5 °F 53% 30.27 in 10.0 mi Calm Calm - N/A   Scattered Clouds
9:58 AM 62.4 °F 41.4 °F 46% 30.26 in 10.0 mi SSE 5.8 mph - N/A   Partly Cloudy
10:58 AM 66.7 °F 40.6 °F 39% 30.25 in 10.0 mi SSE 4.6 mph - N/A   Mostly Cloudy
11:58 AM 69.4 °F 39.9 °F 34% 30.25 in 10.0 mi South 6.9 mph - N/A   Clear
12:58 PM 72.1 °F 39.9 °F 31% 30.24 in 10.0 mi South 10.4 mph 18.4 mph N/A   Partly Cloudy
1:58 PM 74.5 °F 39.6 °F 28% 30.21 in 10.0 mi South 12.7 mph 19.6 mph N/A   Clear
2:58 PM 75.4 °F 37.6 °F 25% 30.18 in 10.0 mi South 15.0 mph 16.1 mph N/A   Clear
3:58 PM 77.4 °F 36.1 °F 23% 30.15 in 10.0 mi SSW 8.1 mph - N/A   Clear
4:58 PM 78.6 °F 38.8 °F 24% 30.12 in 10.0 mi South 9.2 mph - N/A   Clear
5:58 PM 79.0 °F 39.9 °F 25% 30.10 in 10.0 mi South 12.7 mph - N/A   Clear
6:58 PM 78.4 °F 40.3 °F 26% 30.07 in 10.0 mi South 13.8 mph - N/A   Clear
7:58 PM 74.8 °F 42.8 °F 32% 30.07 in 10.0 mi South 9.2 mph - N/A   Clear
8:53 PM 69.8 °F 44.6 °F 40% 30.08 in 6.0 mi SSE 8.1 mph - N/A   Haze
8:58 PM 68.9 °F 43.9 °F 40% 30.07 in 6.0 mi SSE 8.1 mph - N/A   Haze
9:33 PM 69.8 °F 41.0 °F 35% 30.08 in 10.0 mi SSE 11.5 mph - N/A   Scattered Clouds
9:58 PM 68.5 °F 40.3 °F 36% 30.09 in 10.0 mi SSE 11.5 mph - N/A   Scattered Clouds
10:58 PM 67.3 °F 39.9 °F 37% 30.10 in 10.0 mi SSE 12.7 mph - N/A   Mostly Cloudy
11:56 PM 66.2 °F 39.2 °F 37% 30.11 in 10.0 mi South 12.7 mph - N/A   Clear